Temperature
18 18 17 17 17 17 17 16 16 16 16 16 16 15 15 15 15 15 15 15 15 15 15 15 15 15 15 15 15 15 15 15 15 15 15 15 15 15 14 14 14 14 14
18 17 17 17 17 17 17 16 16 16 16 16 16 15 15 15 15 15 15 15 15 15 15 15 15 15 15 15 15 15 15 15 15 15 15 15 14 14 14 14 14 14 14
18 18 17 17 17 17 17 16 16 16 16 16 16 15 15 15 15 15 15 15 14 14 15 15 15 15 15 15 15 15 15 15 15 15 15 15 14 14 14 14 14 14 14
18 18 18 17 17 17 17 16 16 16 16 16 15 15 15 15 15 15 15 14 14 14 14 14 14 14 14 15 14 15 15 15 15 15 15 14 14 14 14 14 14 14 14
18 18 18 18 17 17 17 17 16 16 16 16 15 15 15 15 15 15 15 14 14 14 14 14 14 14 14 14 14 14 14 14 14 14 14 14 14 14 14 14 14 14 14
18 18 18 18 17 17 17 16 16 16 16 16 16 15 15 15 15 15 15 14 14 14 14 14 14 14 14 14 14 14 14 14 14 14 14 14 14 14 14 14 14 14 14
18 18 18 18 17 17 17 17 16 16 16 16 16 15 15 15 15 15 15 14 14 14 14 14 14 14 14 14 14 14 14 14 14 14 14 14 14 13 13 13 13 13 13
18 18 18 18 18 17 17 17 16 16 16 16 16 16 15 15 15 15 15 14 14 14 14 14 14 14 14 14 14 14 14 13 14 13 13 13 13 13 13 13 13 13 13
18 18 18 18 18 17 17 17 17 17 16 16 16 16 15 15 15 15 15 14 14 14 14 14 14 14 13 13 13 13 13 13 13 13 13 13 13 13 13 13 13 13 13
18 18 18 18 18 17 17 17 17 16 16 16 16 16 15 15 15 15 15 14 14 14 14 14 14 14 13 13 13 13 13 13 13 13 13 13 13 13 13 13 13 13 13
18 18 18 18 17 17 17 17 17 16 16 16 16 15 15 15 15 15 14 14 14 14 14 14 13 13 13 13 13 13 13 13 13 13 13 13 12 12 12 12 12 12 12
18 18 18 18 17 17 17 17 17 16 16 16 16 15 15 15 15 14 14 14 14 14 14 13 13 13 13 13 13 13 13 13 13 12 12 12 12 12 12 12 12 12 12
18 18 17 17 17 17 17 17 17 16 16 16 16 15 15 15 15 14 14 14 14 14 13 13 13 13 13 13 13 13 13 12 12 12 12 12 12 12 12 12 12 12 11
18 18 17 17 17 17 17 17 17 16 16 16 15 15 15 15 15 14 14 14 14 14 13 13 13 13 13 13 12 12 12 12 12 12 12 12 12 12 12 11 11 11 11
17 17 18 17 17 17 17 17 16 16 16 16 15 15 15 15 15 14 14 14 14 13 13 13 13 13 12 12 12 12 12 12 12 12 12 12 11 11 11 11 11 11 11
18 18 18 17 17 17 17 17 16 16 16 16 15 15 15 14 14 14 14 14 13 13 13 13 13 13 12 12 12 12 12 12 11 11 11 11 11 11 11 11 11 10 10
18 18 18 18 18 17 17 17 16 16 16 16 15 15 15 14 14 14 14 13 13 13 13 13 13 12 12 12 12 11 11 11 11 11 11 11 11 11 10 10 10 10 10
18 18 18 18 18 17 17 16 16 16 16 15 15 15 15 14 14 14 14 13 13 13 13 13 12 12 12 11 11 11 11 11 11 11 11 10 10 10 10 10 10 10 9
19 19 18 18 18 17 17 16 16 16 16 15 15 15 15 14 14 14 13 13 13 13 13 12 12 12 11 11 11 11 11 11 10 10 10 10 10 10 10 10 9 9 9
18 18 18 18 18 17 17 16 16 16 16 15 15 15 14 14 14 14 13 13 13 13 12 12 12 11 11 11 10 10 10 10 10 10 10 10 10 9 9 9 9 9 9
18 18 18 18 17 17 17 16 16 16 16 15 15 15 14 14 14 13 13 13 12 12 12 12 11 11 11 10 10 10 10 10 10 10 10 9 9 9 9 8 8 8 8
18 18 17 17 17 17 16 16 16 16 15 15 15 14 14 14 13 13 13 12 12 12 12 11 11 11 11 10 10 10 10 9 9 9 9 9 8 8 8 8 8 7 7
18 17 17 17 17 16 16 16 16 15 15 15 14 14 14 13 13 13 13 12 12 12 11 11 11 11 10 10 10 10 9 9 9 9 9 8 8 8 8 7 7 7 7
17 17 17 17 16 16 16 16 15 15 15 15 14 14 13 13 13 12 12 12 12 11 11 11 11 10 10 10 10 9 9 9 8 8 8 8 7 7 7 7 7 6 6
17 17 16 16 16 16 16 15 15 15 15 14 14 14 13 13 13 12 12 12 11 11 11 10 10 10 10 9 9 9 8 8 8 8 7 7 7 7 7 6 6 6 6
16 16 16 16 15 15 15 15 15 14 14 14 14 13 13 12 12 12 11 11 11 10 10 10 9 9 9 9 8 8 8 8 7 7 7 7 6 6 6 6 5 5 5
Wind_Speed
3 4 5 5 5 5 5 5 6 4 4 4 3 3 3 2 3 5 8 9 9 8 8 5 5 5 4 4 4 3 4 4 3 3 4 4 5 6 6 6 6 7 9
4 4 5 4 4 4 4 5 5 5 4 3 3 3 3 2 1 3 7 9 9 8 7 6 4 4 4 6 5 4 3 3 4 3 3 3 5 5 5 5 5 6 7
8 7 6 5 5 4 5 5 4 4 4 4 4 4 4 3 3 4 4 7 8 8 8 7 5 5 4 4 5 4 3 2 4 3 3 3 0 2 4 4 5 6 5
7 7 7 6 6 5 4 5 5 5 4 5 5 5 4 2 1 1 2 4 8 8 8 7 7 5 4 4 4 4 3 3 2 3 3 2 2 2 2 4 4 5 5
9 9 8 8 6 5 5 5 5 5 4 5 6 6 4 2 1 2 3 4 5 8 8 8 7 6 4 4 5 5 5 4 3 2 2 3 3 3 2 2 4 4 4
9 8 6 6 5 5 4 5 5 4 4 5 5 5 6 4 4 3 3 3 3 4 6 7 7 6 5 4 4 4 5 4 4 4 3 2 2 1 2 1 2 2 3
10 9 8 7 6 6 5 5 6 4 4 5 4 5 5 5 4 3 2 2 2 2 3 4 5 5 5 6 5 5 5 4 5 4 3 3 2 1 1 2 1 2 2
10 10 10 9 8 7 6 6 6 5 4 5 4 4 4 3 3 3 2 2 1 1 2 4 5 5 6 6 6 4 4 4 5 5 4 3 3 2 1 2 2 2 3
10 10 9 9 8 8 7 7 7 5 5 5 5 4 4 4 3 3 2 2 1 2 3 4 4 5 6 6 5 4 4 4 4 4 4 3 3 3 2 2 2 2 1
9 9 9 8 8 7 6 6 6 6 5 5 5 5 4 4 3 3 3 2 2 3 3 4 4 4 5 5 4 3 3 5 4 3 4 4 3 3 3 3 2 2 2
10 9 8 7 7 6 6 6 6 5 5 5 5 5 4 4 4 3 2 2 3 3 3 3 4 4 4 4 4 4 4 5 4 4 4 4 3 3 3 3 2 2 2
8 8 8 8 7 7 6 6 6 6 5 5 6 5 5 5 4 3 2 3 3 3 4 4 4 4 4 4 4 4 4 4 4 4 4 4 3 4 3 2 2 2 1
8 7 7 8 8 7 7 6 6 6 5 6 6 6 5 5 4 3 2 3 3 3 4 4 4 3 3 4 4 4 4 3 3 3 3 3 3 3 3 2 2 2 2
9 9 8 8 8 7 7 7 6 6 6 7 6 6 5 5 4 3 3 3 3 3 3 3 3 3 3 3 3 4 4 4 4 3 3 3 2 2 2 2 2 2 2
8 9 9 8 8 7 7 7 6 6 7 7 6 6 5 4 4 4 3 3 3 4 3 3 3 3 3 3 3 3 4 3 4 4 4 4 5 5 3 3 2 2 1
9 9 9 9 9 9 9 8 7 7 7 8 6 6 5 5 4 4 4 4 3 3 3 3 3 3 2 4 5 4 3 3 3 3 3 4 6 7 7 7 6 4 2
9 10 10 10 10 9 9 9 8 8 8 7 6 6 6 5 4 4 4 4 3 3 3 2 3 2 1 4 5 5 4 3 2 2 3 3 5 6 4 6 7 7 6
9 9 9 8 8 8 8 8 7 8 7 7 6 6 6 6 5 5 4 3 3 3 2 2 2 2 1 3 4 5 4 3 2 2 1 2 3 3 4 3 4 4 5
9 8 9 8 8 9 9 10 8 7 7 6 6 6 7 6 6 5 4 3 3 3 2 2 2 2 1 2 4 4 3 3 2 2 2 2 2 4 5 3 3 4 5
7 7 7 8 9 8 10 10 9 8 8 7 7 6 7 7 7 6 5 3 3 3 3 3 2 2 1 1 3 4 3 2 1 2 3 4 4 5 4 2 2 3 5
7 8 9 8 8 9 10 10 8 8 7 6 6 6 6 6 6 5 4 4 4 4 3 3 1 1 0 0 2 3 2 2 1 1 2 3 6 6 5 3 1 4 4
7 8 8 7 7 9 10 9 8 7 7 7 7 6 6 5 5 6 4 4 5 5 3 2 1 1 2 1 1 2 2 2 2 1 2 3 5 5 6 4 5 6 5
7 7 8 7 6 7 9 10 7 8 8 8 7 6 5 5 5 6 6 4 4 4 3 2 1 1 1 1 1 1 1 1 1 1 2 3 5 5 4 6 7 5 3
7 7 8 8 6 6 6 7 7 9 9 8 7 6 6 5 4 4 4 4 4 4 3 3 2 1 0 1 1 0 1 1 1 1 3 4 4 3 4 5 5 3 3
6 7 8 7 6 6 5 6 7 9 9 8 6 6 5 6 5 4 3 4 4 5 5 4 4 3 2 3 3 2 1 1 1 0 1 2 2 3 3 4 4 3 3
6 6 6 6 6 6 6 6 7 8 9 7 6 5 5 4 4 4 2 2 2 3 4 4 4 3 3 2 2 2 2 2 1 1 1 2 2 3 4 4 4 4 4
Wind_Direction
178 151 137 129 122 119 118 120 120 119 117 106 98 88 67 38 29 34 42 46 51 55 59 55 44 45 50 41 39 52 50 36 18 51 32 19 31 40 30 23 28 28 28
162 155 139 136 140 145 139 131 135 135 131 123 116 112 109 73 42 27 38 40 44 48 55 55 50 45 51 43 37 46 55 35 30 70 70 22 5 9 17 18 26 23 26
180 173 162 156 152 157 162 153 146 136 127 117 104 86 63 47 32 23 18 20 37 47 52 56 59 51 54 52 39 42 67 61 31 46 99 103 301 330 348 12 21 19 23
179 175 168 164 168 175 163 145 141 131 129 127 122 121 117 107 54 17 16 22 37 44 48 55 59 57 53 55 42 46 54 78 55 33 44 85 133 109 354 346 2 15 23
179 176 174 172 170 162 154 147 132 123 129 132 132 123 113 112 84 58 48 34 29 37 43 50 56 54 52 55 52 49 53 61 74 63 52 57 53 64 102 358 342 355 360
177 172 166 156 155 147 143 139 131 126 132 132 131 133 131 124 106 80 64 37 25 25 34 45 51 54 55 55 57 57 60 59 65 62 59 69 71 51 79 85 352 342 330
173 169 166 165 163 159 156 149 144 145 142 134 132 137 139 136 134 130 115 86 47 27 13 40 46 49 54 58 62 63 58 56 64 63 57 58 58 83 107 103 51 6 335
175 177 177 173 171 170 165 161 160 156 151 146 146 140 137 133 133 136 132 122 105 55 36 52 53 54 59 64 65 63 56 57 60 60 60 57 40 48 82 117 115 44 4
178 178 174 172 172 172 175 172 166 157 157 156 145 138 135 131 133 127 117 115 107 80 64 64 61 58 61 66 69 63 52 59 56 55 58 55 32 39 46 70 106 120 58
176 174 172 173 173 173 172 165 161 162 158 154 152 143 136 132 132 119 109 103 90 76 72 63 63 61 60 66 69 62 49 59 46 50 56 47 28 33 39 49 55 89 141
179 177 174 170 165 161 161 159 156 148 146 147 140 130 128 122 116 114 113 108 89 84 83 81 78 72 65 64 70 63 59 63 49 42 51 38 32 39 31 40 46 50 88
173 170 166 161 162 164 163 163 158 154 154 145 135 130 123 116 113 110 107 100 94 83 85 85 82 75 68 65 75 70 61 65 56 38 43 28 37 38 27 34 33 27 47
160 158 160 168 172 170 168 168 164 161 149 138 134 130 128 129 132 130 117 104 100 90 80 86 87 80 76 76 77 78 66 59 52 42 43 23 42 32 20 25 20 3 23
165 165 171 174 175 172 170 167 163 158 148 142 142 143 149 149 146 133 119 111 108 101 94 90 90 89 86 86 83 79 70 58 45 37 39 31 43 35 20 23 9 12 26
170 172 176 178 174 170 169 165 161 158 153 147 151 159 152 137 127 121 116 108 103 103 99 92 78 79 92 99 103 90 81 67 47 33 29 31 42 40 34 34 18 36 35
182 178 174 174 177 178 175 168 166 163 154 155 160 154 141 131 128 127 120 110 104 97 91 89 87 81 82 104 111 108 91 71 60 39 19 26 35 31 29 31 32 33 38
180 178 180 182 182 180 174 172 169 157 154 157 156 153 147 143 145 138 125 124 124 110 100 95 94 86 78 106 111 109 103 88 74 57 32 28 21 22 21 21 22 16 15
179 180 178 177 173 166 160 152 147 151 155 156 159 159 154 152 146 137 138 142 131 125 127 124 118 104 86 103 107 104 93 86 69 56 43 29 356 358 18 25 14 357 346
179 177 175 169 159 157 154 145 146 148 152 163 169 167 160 155 151 150 152 150 137 130 130 122 121 113 99 103 112 108 100 84 48 14 18 18 351 354 15 30 7 349 336
156 155 152 147 150 152 146 146 153 156 169 174 171 162 158 157 160 162 158 149 144 143 127 106 109 128 157 106 114 116 114 102 41 355 349 356 354 356 7 20 1 336 318
148 148 147 151 157 152 148 152 158 174 175 159 149 146 151 156 156 152 148 141 134 121 116 110 81 68 317 48 109 120 130 155 144 334 326 325 345 352 352 351 312 306 318
136 143 147 149 148 152 153 158 173 170 147 142 141 145 147 150 147 141 136 132 131 126 125 115 72 358 336 354 90 114 126 141 151 243 280 303 335 347 350 347 335 336 345
144 145 146 145 147 159 162 168 172 150 142 140 145 146 141 137 141 145 143 134 135 140 149 148 167 269 323 335 41 96 104 126 156 250 294 323 338 346 346 341 342 348 347
146 143 139 144 154 160 166 167 153 149 144 147 150 147 143 138 136 140 146 149 158 161 164 169 189 212 271 287 293 295 353 1 352 336 337 342 348 347 332 335 337 333 307
146 146 149 155 160 155 152 147 150 149 146 149 150 149 149 151 149 149 158 167 183 180 177 190 188 183 214 237 212 181 210 224 232 331 9 1 346 340 331 326 321 316 315
145 143 145 149 152 150 149 148 152 151 149 150 154 157 155 151 151 147 114 83 149 168 174 175 176 202 216 217 203 220 234 238 210 71 350 306 302 297 300 305 308 304 300
Height
1547 1549 1551 1552 1554 1556 1557 1558 1559 1560 1561 1561 1562 1562 1563 1563 1563 1562 1562 1562 1561 1561 1560 1560 1559 1559 1558 1558 1557 1557 1557 1557 1557 1557 1557 1557 1556 1556 1556 1555 1555 1554 1554
1546 1548 1550 1552 1554 1556 1557 1559 1560 1561 1562 1562 1563 1563 1564 1564 1564 1564 1563 1563 1563 1562 1562 1561 1561 1560 1559 1559 1558 1558 1558 1558 1558 1558 1557 1558 1559 1558 1557 1557 1556 1556 1555
1544 1547 1550 1552 1554 1556 1557 1559 1560 1561 1562 1563 1564 1564 1565 1565 1565 1565 1565 1564 1564 1564 1563 1562 1562 1561 1560 1560 1559 1559 1559 1559 1559 1559 1559 1558 1558 1558 1559 1558 1557 1557 1556
1543 1546 1548 1551 1553 1556 1557 1559 1560 1561 1562 1563 1564 1565 1565 1566 1566 1566 1566 1566 1566 1565 1564 1564 1563 1562 1562 1561 1560 1560 1560 1560 1560 1560 1559 1560 1559 1559 1559 1559 1558 1558 1557
1542 1545 1547 1550 1553 1555 1557 1559 1560 1561 1562 1563 1564 1565 1566 1566 1567 1567 1567 1567 1567 1566 1566 1565 1564 1564 1563 1562 1562 1561 1561 1561 1561 1560 1560 1560 1560 1559 1559 1559 1559 1559 1558
1540 1543 1547 1550 1552 1555 1557 1559 1560 1561 1562 1564 1565 1566 1566 1567 1567 1568 1568 1568 1568 1567 1567 1566 1566 1565 1564 1564 1563 1563 1563 1562 1562 1562 1561 1561 1560 1560 1560 1559 1559 1559 1559
1537 1541 1545 1548 1551 1554 1556 1558 1560 1561 1562 1564 1565 1566 1567 1567 1568 1568 1568 1568 1568 1568 1568 1567 1567 1566 1566 1565 1565 1565 1564 1564 1563 1563 1562 1562 1561 1561 1560 1560 1559 1559 1559
1535 1538 1542 1546 1549 1552 1555 1557 1559 1561 1562 1564 1565 1566 1567 1568 1568 1568 1569 1569 1569 1569 1569 1568 1568 1567 1567 1567 1566 1566 1566 1565 1565 1564 1564 1563 1563 1562 1561 1561 1560 1560 1560
1532 1536 1541 1544 1548 1551 1554 1556 1558 1560 1562 1563 1564 1566 1567 1567 1568 1569 1569 1570 1570 1570 1570 1569 1569 1569 1568 1568 1568 1567 1567 1567 1566 1565 1565 1564 1564 1563 1562 1562 1561 1561 1560
1531 1535 1539 1543 1547 1550 1553 1555 1558 1560 1561 1563 1564 1565 1566 1567 1568 1569 1569 1570 1570 1570 1570 1570 1570 1570 1569 1569 1569 1569 1568 1568 1567 1566 1566 1565 1564 1564 1563 1562 1562 1561 1561
1529 1533 1537 1541 1545 1549 1552 1554 1556 1558 1560 1562 1563 1565 1566 1567 1568 1569 1570 1570 1570 1570 1570 1571 1570 1570 1570 1570 1570 1569 1569 1569 1568 1567 1567 1566 1565 1564 1564 1563 1562 1561 1560
1528 1532 1536 1540 1543 1547 1550 1553 1555 1557 1560 1562 1563 1564 1566 1567 1568 1569 1570 1570 1570 1570 1571 1571 1571 1571 1571 1570 1570 1570 1569 1569 1568 1568 1567 1566 1565 1564 1564 1563 1562 1561 1559
1526 1530 1534 1538 1541 1545 1548 1551 1554 1556 1559 1561 1562 1564 1565 1566 1567 1568 1569 1570 1570 1570 1571 1571 1571 1571 1571 1571 1570 1570 1570 1569 1568 1568 1567 1566 1565 1564 1563 1562 1561 1560 1559
1525 1528 1532 1536 1540 1543 1546 1549 1552 1555 1558 1560 1561 1563 1564 1566 1567 1568 1569 1569 1570 1570 1570 1571 1571 1571 1571 1571 1570 1570 1569 1569 1568 1567 1566 1565 1564 1563 1562 1561 1560 1559 1557
1523 1526 1529 1533 1537 1541 1545 1548 1551 1554 1556 1558 1560 1562 1564 1565 1566 1567 1568 1569 1569 1570 1570 1570 1570 1570 1570 1570 1570 1570 1569 1568 1567 1567 1566 1565 1564 1563 1561 1560 1558 1557 1556
1520 1523 1527 1531 1535 1539 1542 1545 1549 1552 1555 1557 1559 1561 1562 1564 1565 1566 1567 1568 1569 1569 1570 1570 1570 1570 1570 1570 1569 1569 1568 1568 1567 1566 1565 1564 1563 1562 1560 1559 1557 1556 1554
1517 1521 1524 1528 1532 1536 1540 1543 1547 1550 1553 1555 1557 1559 1561 1562 1564 1565 1566 1567 1568 1568 1569 1569 1569 1569 1569 1569 1569 1568 1568 1567 1566 1565 1564 1563 1562 1561 1559 1557 1556 1554 1552
1515 1519 1522 1527 1531 1534 1538 1542 1545 1548 1551 1553 1555 1557 1559 1561 1562 1563 1564 1566 1566 1567 1568 1568 1568 1568 1568 1568 1568 1567 1567 1566 1565 1564 1563 1562 1560 1559 1558 1556 1554 1552 1551
1513 1516 1520 1525 1529 1532 1536 1540 1543 1546 1548 1551 1553 1555 1557 1559 1560 1561 1563 1564 1565 1566 1566 1567 1567 1567 1567 1567 1567 1566 1566 1565 1564 1563 1562 1560 1559 1557 1556 1554 1552 1550 1549
1511 1515 1519 1523 1527 1530 1534 1537 1540 1543 1546 1549 1551 1553 1555 1557 1558 1559 1561 1562 1563 1564 1565 1565 1566 1566 1566 1566 1566 1565 1564 1563 1562 1561 1560 1559 1557 1556 1554 1552 1550 1548 1546
1510 1514 1517 1521 1525 1528 1532 1535 1538 1541 1544 1547 1549 1552 1553 1555 1556 1558 1559 1560 1561 1562 1563 1564 1564 1564 1565 1564 1564 1563 1563 1562 1560 1559 1558 1557 1555 1553 1552 1550 1548 1546 1544
1509 1512 1516 1519 1523 1527 1530 1533 1536 1539 1542 1545 1547 1549 1551 1553 1555 1556 1557 1559 1560 1560 1561 1562 1562 1562 1563 1562 1562 1561 1561 1560 1558 1557 1556 1554 1553 1551 1549 1547 1545 1543 1541
1507 1511 1514 1518 1521 1525 1528 1531 1534 1537 1540 1543 1545 1547 1549 1551 1553 1554 1555 1556 1557 1558 1559 1559 1559 1560 1560 1560 1560 1559 1558 1557 1556 1555 1553 1552 1550 1548 1546 1544 1542 1540 1538
1506 1509 1512 1516 1519 1523 1526 1529 1532 1535 1538 1540 1543 1545 1547 1549 1550 1552 1553 1554 1555 1556 1556 1557 1557 1557 1557 1557 1557 1556 1556 1555 1553 1552 1551 1549 1547 1546 1544 1541 1539 1537 1534
1504 1508 1511 1514 1517 1521 1524 1527 1530 1533 1535 1538 1540 1542 1544 1546 1548 1549 1551 1552 1553 1554 1554 1554 1555 1555 1554 1554 1554 1554 1552 1551 1550 1549 1547 1546 1544 1542 1540 1537 1535 1533 1530
1503 1506 1509 1512 1516 1519 1522 1525 1528 1530 1532 1535 1537 1539 1541 1543 1545 1546 1548 1549 1550 1551 1552 1552 1552 1552 1552 1552 1551 1550 1549 1548 1547 1546 1544 1542 1540 1538 1536 1533 1531 1528 1526